FIA439 LUKK-LTFM

Flight info

Callsign FIA439
Flight time 1h 8m
Altitude 320
Route LIPT3K LIPTA T34 KODRU DCT RIPGA DCT PILAT/N0447F370 DCT LUGEB DCT MATEL L620 RIXEN RIXE2A
Aircraft A320/M-V/N

Departure

Time 2026-05-04 13:41
Airport Chişinău International Airport (LUKK)

Arrival

Time 2026-05-04 14:49
Airport İstanbul Airport (LTFM)
Time Latitude Longitude Altitude Speed Heading
2026-05-04 13:09 46.93375 28.93603 408 ft 0 kts
2026-05-04 13:12 46.93374 28.93603 408 ft 0 kts
2026-05-04 13:30 46.93373 28.93603 408 ft 0 kts
2026-05-04 13:31 46.93385 28.93605 408 ft 3 kts
2026-05-04 13:31 46.93413 28.93571 408 ft 9 kts 286°
2026-05-04 13:31 46.93390 28.93488 408 ft 13 kts 197°
2026-05-04 13:31 46.93280 28.93465 408 ft 19 kts 187°
2026-05-04 13:32 46.93169 28.93440 409 ft 10 kts 211°
2026-05-04 13:32 46.93159 28.93349 410 ft 9 kts 276°
2026-05-04 13:32 46.93165 28.93263 410 ft 8 kts 276°
2026-05-04 13:32 46.93171 28.93183 410 ft 9 kts 277°
2026-05-04 13:33 46.93181 28.93074 410 ft 13 kts 278°
2026-05-04 13:33 46.93196 28.92916 408 ft 18 kts 278°
2026-05-04 13:33 46.93214 28.92701 403 ft 24 kts 277°
2026-05-04 13:33 46.93233 28.92466 405 ft 25 kts 276°
2026-05-04 13:34 46.93251 28.92261 407 ft 21 kts 279°
2026-05-04 13:34 46.93260 28.92074 407 ft 17 kts 244°
2026-05-04 13:34 46.93145 28.92000 408 ft 15 kts 194°
2026-05-04 13:34 46.93047 28.91988 408 ft 16 kts 178°
2026-05-04 13:35 46.92934 28.91993 408 ft 14 kts 178°
2026-05-04 13:35 46.92880 28.91996 408 ft 0 kts 178°
2026-05-04 13:36 46.92870 28.91996 406 ft 4 kts 178°
2026-05-04 13:37 46.92827 28.91998 408 ft 9 kts 178°
2026-05-04 13:37 46.92764 28.91958 409 ft 13 kts 241°
2026-05-04 13:37 46.92753 28.91797 407 ft 19 kts 268°
2026-05-04 13:37 46.92750 28.91654 407 ft 22 kts 268°
2026-05-04 13:38 46.92744 28.91319 407 ft 28 kts 268°
2026-05-04 13:38 46.92740 28.91114 408 ft 20 kts 268°
2026-05-04 13:38 46.92736 28.90919 406 ft 13 kts 268°
2026-05-04 13:38 46.92770 28.90805 406 ft 12 kts 282°
2026-05-04 13:39 46.92732 28.90798 408 ft 10 kts 96°
2026-05-04 13:39 46.92734 28.90864 409 ft 0 kts 88°
2026-05-04 13:40 46.92734 28.90884 407 ft 8 kts 88°
2026-05-04 13:40 46.92745 28.91392 407 ft 94 kts 89°
2026-05-04 13:41 46.92776 28.92735 408 ft 165 kts 89°
2026-05-04 13:41 46.92812 28.94621 733 ft 198 kts 89°
2026-05-04 13:41 46.92832 28.96664 1206 ft 199 kts 91°
2026-05-04 13:42 46.92814 29.00779 1904 ft 223 kts 92°
2026-05-04 13:42 46.92808 29.03166 2059 ft 248 kts 92°
2026-05-04 13:42 46.92695 29.05788 2560 ft 264 kts 106°
2026-05-04 13:42 46.91738 29.08008 3663 ft 265 kts 143°
2026-05-04 13:43 46.90001 29.08963 4483 ft 277 kts 176°
2026-05-04 13:43 46.88084 29.08559 5366 ft 282 kts 199°
2026-05-04 13:43 46.86380 29.07090 6194 ft 291 kts 223°
2026-05-04 13:43 46.85117 29.04737 6939 ft 298 kts 235°
2026-05-04 13:44 46.83914 29.02237 7748 ft 304 kts 231°
2026-05-04 13:44 46.82429 29.00006 8535 ft 309 kts 223°
2026-05-04 13:44 46.80866 28.97806 9347 ft 314 kts 223°
2026-05-04 13:44 46.79274 28.95578 10124 ft 320 kts 223°
2026-05-04 13:45 46.77612 28.93249 10428 ft 343 kts 223°
2026-05-04 13:45 46.75836 28.90759 10743 ft 363 kts 224°
2026-05-04 13:45 46.73875 28.88387 11357 ft 370 kts 210°
2026-05-04 13:45 46.71557 28.86731 12059 ft 373 kts 202°
2026-05-04 13:46 46.69176 28.85168 12799 ft 378 kts 202°
2026-05-04 13:46 46.66763 28.83599 13532 ft 382 kts 202°
2026-05-04 13:46 46.64322 28.82015 14185 ft 386 kts 202°
2026-05-04 13:46 46.61890 28.80438 14833 ft 389 kts 202°
2026-05-04 13:47 46.59406 28.78826 15483 ft 393 kts 202°
2026-05-04 13:47 46.56902 28.77203 16126 ft 396 kts 202°
2026-05-04 13:47 46.54379 28.75569 16767 ft 399 kts 202°
2026-05-04 13:47 46.51831 28.73918 17404 ft 402 kts 202°
2026-05-04 13:48 46.49267 28.72258 18037 ft 406 kts 202°
2026-05-04 13:48 46.46680 28.70584 18617 ft 408 kts 202°
2026-05-04 13:48 46.44076 28.68903 19166 ft 411 kts 202°
2026-05-04 13:48 46.41459 28.67214 19726 ft 412 kts 203°
2026-05-04 13:49 46.38837 28.65519 20305 ft 413 kts 203°
2026-05-04 13:49 46.36202 28.63821 20864 ft 415 kts 204°
2026-05-04 13:49 46.33560 28.62122 21422 ft 416 kts 204°
2026-05-04 13:49 46.30912 28.60423 21980 ft 418 kts 204°
2026-05-04 13:50 46.28251 28.58716 22527 ft 419 kts 205°
2026-05-04 13:50 46.25581 28.57004 23050 ft 421 kts 205°
2026-05-04 13:50 46.22903 28.55281 23565 ft 422 kts 205°
2026-05-04 13:50 46.20249 28.53576 23995 ft 424 kts 205°
2026-05-04 13:51 46.17548 28.51846 24397 ft 426 kts 205°
2026-05-04 13:51 46.14836 28.50117 24789 ft 428 kts 205°
2026-05-04 13:51 46.12103 28.48378 25181 ft 430 kts 205°
2026-05-04 13:51 46.09362 28.46635 25574 ft 432 kts 205°
2026-05-04 13:52 46.03847 28.43122 26328 ft 436 kts 204°
2026-05-04 13:52 46.01064 28.41352 26651 ft 439 kts 204°
2026-05-04 13:52 45.98265 28.39575 27046 ft 440 kts 204°
2026-05-04 13:53 45.95462 28.37799 27465 ft 440 kts 204°
2026-05-04 13:53 45.92653 28.36021 27852 ft 442 kts 204°
2026-05-04 13:53 45.89835 28.34237 28214 ft 444 kts 204°
2026-05-04 13:54 45.84157 28.30643 28916 ft 447 kts 204°
2026-05-04 13:54 45.81305 28.28841 29281 ft 449 kts 204°
2026-05-04 13:54 45.75605 28.25256 29910 ft 452 kts 204°
2026-05-04 13:55 45.72721 28.23448 30226 ft 453 kts 204°
2026-05-04 13:55 45.66926 28.19821 30734 ft 457 kts 204°
2026-05-04 13:55 45.64009 28.17997 30949 ft 459 kts 204°
2026-05-04 13:56 45.58156 28.14347 31035 ft 458 kts 204°
2026-05-04 13:57 45.49385 28.08881 31031 ft 459 kts 204°
2026-05-04 13:58 45.37698 28.01608 31032 ft 459 kts 204°
2026-05-04 13:58 45.28965 27.96213 31035 ft 458 kts 203°
2026-05-04 13:59 45.23049 27.93057 31032 ft 458 kts 192°
2026-05-04 13:59 45.16723 27.92490 31032 ft 458 kts 173°
2026-05-04 14:00 45.13596 27.93320 31034 ft 458 kts 163°
2026-05-04 14:00 45.04638 27.97968 31038 ft 457 kts 159°
2026-05-04 14:01 44.99695 28.00598 31035 ft 457 kts 159°
2026-05-04 14:02 44.89809 28.05846 31038 ft 457 kts 159°
2026-05-04 14:02 44.84823 28.08486 31038 ft 456 kts 158°
2026-05-04 14:03 44.78755 28.11151 31041 ft 459 kts 163°
2026-05-04 14:03 44.72628 28.13450 31041 ft 460 kts 163°
2026-05-04 14:04 44.63347 28.16948 31040 ft 460 kts 163°
2026-05-04 14:04 44.57178 28.19267 31037 ft 458 kts 163°
2026-05-04 14:05 44.47914 28.22724 31039 ft 460 kts 163°
2026-05-04 14:06 44.41729 28.25023 31035 ft 460 kts 163°
2026-05-04 14:06 44.35534 28.27322 31025 ft 460 kts 163°
2026-05-04 14:07 44.29351 28.29614 31048 ft 460 kts 163°
2026-05-04 14:07 44.23203 28.31892 31041 ft 462 kts 163°
2026-05-04 14:08 44.16976 28.34194 31053 ft 464 kts 163°
2026-05-04 14:08 44.10737 28.36504 31050 ft 464 kts 163°
2026-05-04 14:09 44.01375 28.39946 31045 ft 464 kts 163°
2026-05-04 14:10 43.92003 28.43381 31034 ft 466 kts 163°
2026-05-04 14:10 43.85740 28.45666 31038 ft 465 kts 163°
2026-05-04 14:11 43.79476 28.47946 31030 ft 465 kts 163°
2026-05-04 14:11 43.70097 28.51454 31024 ft 465 kts 161°
2026-05-04 14:12 43.63937 28.54150 31024 ft 464 kts 159°
2026-05-04 14:13 43.54773 28.58273 31026 ft 464 kts 159°
2026-05-04 14:13 43.48606 28.60943 31027 ft 464 kts 160°
2026-05-04 14:14 43.42433 28.63578 31025 ft 464 kts 159°
2026-05-04 14:14 43.33152 28.67564 31024 ft 467 kts 159°
2026-05-04 14:15 43.20731 28.72877 31034 ft 467 kts 159°
2026-05-04 14:16 43.11422 28.76848 31016 ft 468 kts 159°
2026-05-04 14:17 43.05067 28.78930 31016 ft 475 kts 171°
2026-05-04 14:17 43.01751 28.79082 31017 ft 479 kts 178°
2026-05-04 14:18 42.91800 28.78811 31007 ft 479 kts 178°
2026-05-04 14:19 42.78472 28.78459 31027 ft 480 kts 177°
2026-05-04 14:19 42.71786 28.78272 31013 ft 481 kts 177°
2026-05-04 14:20 42.65093 28.78104 31016 ft 481 kts 177°
2026-05-04 14:20 42.58400 28.77929 31011 ft 481 kts 177°
2026-05-04 14:21 42.48359 28.77660 31006 ft 481 kts 177°
2026-05-04 14:21 42.41719 28.77488 31016 ft 481 kts 177°
2026-05-04 14:22 42.35020 28.77308 31013 ft 482 kts 177°
2026-05-04 14:22 42.28313 28.77143 31014 ft 482 kts 177°
2026-05-04 14:23 42.18251 28.76878 31011 ft 482 kts 177°
2026-05-04 14:24 42.11540 28.76696 31015 ft 482 kts 177°
2026-05-04 14:24 42.04832 28.76608 31029 ft 483 kts 175°
2026-05-04 14:25 41.98164 28.76871 31023 ft 483 kts 173°
2026-05-04 14:25 41.88079 28.77427 31021 ft 484 kts 174°
2026-05-04 14:26 41.81346 28.77678 31022 ft 485 kts 177°
2026-05-04 14:26 41.77998 28.76971 31018 ft 493 kts 197°
2026-05-04 14:26 41.74970 28.74816 31022 ft 497 kts 218°
2026-05-04 14:27 41.72610 28.71464 31024 ft 497 kts 236°
2026-05-04 14:27 41.70823 28.67561 31029 ft 497 kts 240°
2026-05-04 14:27 41.66898 28.59938 31026 ft 498 kts 233°
2026-05-04 14:28 41.62651 28.52709 31030 ft 497 kts 232°
2026-05-04 14:28 41.58438 28.45398 31029 ft 497 kts 234°
2026-05-04 14:29 41.50304 28.30550 30574 ft 491 kts 234°
2026-05-04 14:30 41.48252 28.26901 29775 ft 492 kts 233°
2026-05-04 14:30 41.46179 28.23272 28904 ft 492 kts 233°
2026-05-04 14:30 41.42022 28.16049 27254 ft 490 kts 233°
2026-05-04 14:31 41.39692 28.12766 26475 ft 489 kts 217°
2026-05-04 14:31 41.33450 28.09945 24955 ft 474 kts 178°
2026-05-04 14:32 41.26890 28.09794 23492 ft 474 kts 185°
2026-05-04 14:32 41.23786 28.08490 22656 ft 478 kts 206°
2026-05-04 14:32 41.20989 28.06125 21814 ft 477 kts 218°
2026-05-04 14:32 41.18515 28.03208 21016 ft 475 kts 224°
2026-05-04 14:33 41.16054 28.00281 20236 ft 474 kts 222°
2026-05-04 14:33 41.13396 27.97727 19479 ft 472 kts 211°
2026-05-04 14:33 41.10510 27.95700 18740 ft 469 kts 200°
2026-05-04 14:33 41.07410 27.94424 17984 ft 465 kts 195°
2026-05-04 14:34 41.04287 27.93336 17158 ft 463 kts 193°
2026-05-04 14:34 41.01123 27.92642 16352 ft 458 kts 179°
2026-05-04 14:34 40.97956 27.92769 15565 ft 453 kts 169°
2026-05-04 14:34 40.95012 27.94025 14801 ft 440 kts 146°
2026-05-04 14:35 40.92697 27.96524 14057 ft 423 kts 123°
2026-05-04 14:35 40.91332 27.99840 13260 ft 404 kts 101°
2026-05-04 14:35 40.91049 28.02903 12542 ft 375 kts 80°
2026-05-04 14:35 40.91691 28.06072 11746 ft 346 kts 62°
2026-05-04 14:36 40.92635 28.08931 10983 ft 333 kts 61°
2026-05-04 14:36 40.93539 28.11690 10304 ft 321 kts 61°
2026-05-04 14:36 40.94373 28.14270 10090 ft 297 kts 61°
2026-05-04 14:36 40.95135 28.16688 9964 ft 274 kts 62°
2026-05-04 14:37 40.95647 28.19039 9832 ft 259 kts 71°
2026-05-04 14:37 40.95916 28.21314 9683 ft 242 kts 75°
2026-05-04 14:37 40.96097 28.23454 9543 ft 226 kts 75°
2026-05-04 14:37 40.96258 28.25446 9370 ft 211 kts 74°
2026-05-04 14:38 40.96424 28.27339 9000 ft 207 kts 77°
2026-05-04 14:38 40.96608 28.29265 8572 ft 211 kts 77°
2026-05-04 14:38 40.96808 28.31198 8081 ft 219 kts 73°
2026-05-04 14:38 40.97019 28.33237 7612 ft 227 kts 74°
2026-05-04 14:39 40.97230 28.35308 7297 ft 227 kts 74°
2026-05-04 14:39 40.97440 28.37370 7042 ft 225 kts 73°
2026-05-04 14:39 40.97661 28.39399 6773 ft 221 kts 71°
2026-05-04 14:40 40.98279 28.43349 6143 ft 219 kts 69°
2026-05-04 14:40 40.98609 28.45309 5851 ft 218 kts 69°
2026-05-04 14:40 40.98935 28.47261 5549 ft 216 kts 69°
2026-05-04 14:40 40.99251 28.49170 5281 ft 214 kts 70°
2026-05-04 14:41 40.99567 28.51083 5057 ft 211 kts 70°
2026-05-04 14:41 40.99880 28.52985 5014 ft 212 kts 70°
2026-05-04 14:41 41.00509 28.56812 5016 ft 213 kts 70°
2026-05-04 14:42 41.01129 28.60653 5017 ft 213 kts 70°
2026-05-04 14:42 41.01436 28.62572 5022 ft 213 kts 71°
2026-05-04 14:42 41.01742 28.64486 5027 ft 212 kts 70°
2026-05-04 14:43 41.02049 28.66404 5033 ft 213 kts 70°
2026-05-04 14:43 41.02357 28.68328 4992 ft 214 kts 71°
2026-05-04 14:43 41.02807 28.70150 4773 ft 203 kts 56°
2026-05-04 14:43 41.03415 28.71794 4764 ft 199 kts 77°
2026-05-04 14:44 41.03476 28.73619 4480 ft 199 kts 75°
2026-05-04 14:44 41.04110 28.75284 3672 ft 205 kts 37°
2026-05-04 14:44 41.05282 28.75966 4296 ft 175 kts 12°
2026-05-04 14:44 41.06510 28.75995 4596 ft 175 kts 354°
2026-05-04 14:45 41.07594 28.75438 4915 ft 168 kts 332°
2026-05-04 14:45 41.08527 28.74404 5097 ft 178 kts 327°
2026-05-04 14:45 41.09536 28.73405 4582 ft 187 kts 336°
2026-05-04 14:45 41.10751 28.72578 3887 ft 204 kts 345°
2026-05-04 14:46 41.12202 28.72201 3237 ft 217 kts
2026-05-04 14:46 41.13716 28.72169 2963 ft 211 kts
2026-05-04 14:46 41.15120 28.72289 2647 ft 195 kts 10°
2026-05-04 14:46 41.16401 28.72469 2473 ft 177 kts 10°
2026-05-04 14:47 41.17599 28.72644 2262 ft 170 kts
2026-05-04 14:47 41.18762 28.72804 1993 ft 163 kts
2026-05-04 14:47 41.19864 28.72861 1672 ft 155 kts
2026-05-04 14:47 41.20885 28.72850 1445 ft 141 kts
2026-05-04 14:48 41.21858 28.72816 1239 ft 138 kts
2026-05-04 14:48 41.22813 28.72829 951 ft 136 kts
2026-05-04 14:48 41.23758 28.72810 681 ft 136 kts 359°
2026-05-04 14:48 41.24694 28.72791 552 ft 133 kts
2026-05-04 14:49 41.25615 28.72775 344 ft 133 kts 360°
2026-05-04 14:49 41.26536 28.72758 211 ft 132 kts
2026-05-04 14:49 41.27364 28.72764 174 ft 100 kts 355°
2026-05-04 14:49 41.27873 28.72737 178 ft 38 kts 358°
2026-05-04 14:50 41.28071 28.72739 178 ft 15 kts 359°
2026-05-04 14:50 41.28158 28.72734 178 ft 7 kts
2026-05-04 14:50 41.28216 28.72744 178 ft 10 kts
2026-05-04 14:50 41.28290 28.72773 177 ft 13 kts 23°
2026-05-04 14:51 41.28377 28.72831 176 ft 15 kts 24°
2026-05-04 14:51 41.28416 28.72859 176 ft 0 kts 32°
2026-05-04 14:53 41.28417 28.72859 176 ft 1 kts 32°
2026-05-04 14:53 41.28434 28.72876 176 ft 6 kts 39°
2026-05-04 14:53 41.28445 28.72940 176 ft 9 kts 118°
2026-05-04 14:53 41.28380 28.72963 176 ft 11 kts 180°
2026-05-04 14:54 41.28293 28.72962 176 ft 14 kts 181°
2026-05-04 14:54 41.28189 28.72962 176 ft 16 kts 179°
2026-05-04 14:54 41.28072 28.72964 176 ft 18 kts 180°
2026-05-04 14:54 41.27941 28.72967 176 ft 20 kts 179°
2026-05-04 14:55 41.27790 28.72972 176 ft 23 kts 180°
2026-05-04 14:55 41.27637 28.72974 176 ft 22 kts 180°
2026-05-04 14:55 41.27478 28.72978 176 ft 23 kts 178°
2026-05-04 14:55 41.27312 28.72981 176 ft 22 kts 180°
2026-05-04 14:56 41.27155 28.72984 176 ft 13 kts 179°
2026-05-04 14:56 41.27112 28.72985 176 ft 8 kts 179°
2026-05-04 14:56 41.27048 28.72985 176 ft 10 kts 180°
2026-05-04 14:56 41.26968 28.72985 176 ft 13 kts 177°
2026-05-04 14:57 41.26881 28.72996 176 ft 12 kts 155°
2026-05-04 14:57 41.26856 28.73075 176 ft 9 kts 92°
2026-05-04 14:57 41.26856 28.73168 176 ft 11 kts 90°
2026-05-04 14:57 41.26856 28.73281 176 ft 13 kts 88°
2026-05-04 14:58 41.26859 28.73385 176 ft 10 kts 88°
2026-05-04 14:58 41.26815 28.73447 176 ft 12 kts 174°
2026-05-04 14:58 41.26764 28.73446 176 ft 0 kts 182°